Location: Dentlein
(49.1477°N, 10.4231°E)
Time: 21:29:53
(UTC+00:00)

CZ-2C R/B - Pass Details

Date: 23 May 2024
Orbit: 703 x 904 km, 98.2° (Epoch: 14 June)

Event Time Altitude Azimuth Distance (km) Brightness Sun altitude
Rises 01:35:01 0° 14° (NNE) 3,538 7.9 -13.6°
Reaches altitude 10° 01:37:27 10° 16° (NNE) 2,597 7.0 -13.4°
Maximum altitude 01:43:18 79° 103° (ESE) 921 3.4 -12.8°
Enters shadow 01:48:27 13° 190° (S) 2,321 4.9 -12.3°
